| time (UTC) | temp F | wind direction | speed MPH | gust MPH | rain 1hr in | rain 24hr in | rain mn in | humidity % | barometer mb |
| 20260901162516 | 59 | 113 | 2.0 | 6.0 | 0.01 | 0.25 | 0.25 | 95 | 1018.8 |
| 20260901162036 | 60 | 68 | 2.0 | 8.0 | 0.01 | 0.25 | 0.25 | 95 | 1018.9 |
| 20260901161516 | 60 | 135 | 2.0 | 8.0 | 0.01 | 0.25 | 0.25 | 95 | 1018.8 |
| 20260901161036 | 60 | 68 | 4.0 | 9.0 | 0.01 | 0.25 | 0.25 | 95 | 1018.6 |
| 20260901160516 | 60 | 90 | 2.0 | 6.0 | 0.01 | 0.25 | 0.25 | 96 | 1018.4 |
| 20260901160016 | 59 | 68 | 2.0 | 6.0 | 0.01 | 0.25 | 0.25 | 97 | 1018.3 |
| 20260901155516 | 59 | 113 | 4.0 | 11.0 | 0.01 | 0.25 | 0.25 | 97 | 1018.3 |
| 20260901155016 | 59 | 68 | 4.0 | 10.0 | 0.01 | 0.25 | 0.25 | 97 | 1018.4 |
| 20260901154536 | 59 | 135 | 2.0 | 6.0 | 0.01 | 0.25 | 0.25 | 97 | 1018.6 |
| 20260901154016 | 59 | 68 | 3.0 | 8.0 | 0.01 | 0.25 | 0.25 | 97 | 1018.6 |
| 20260901153536 | 59 | 68 | 3.0 | 11.0 | 0.01 | 0.25 | 0.25 | 97 | 1018.8 |
| 20260901153016 | 59 | 68 | 3.0 | 9.0 | 0.01 | 0.24 | 0.24 | 97 | 1018.7 |
| 20260901152516 | 59 | 68 | 3.0 | 10.0 | 0.01 | 0.24 | 0.24 | 97 | 1018.7 |
| 20260901152057 | 59 | 90 | 2.0 | 10.0 | 0.01 | 0.24 | 0.24 | 97 | 1018.8 |
| 20260901151516 | 59 | 45 | 2.0 | 8.0 | 0.01 | 0.24 | 0.24 | 97 | 1018.8 |
| 20260901151016 | 59 | 68 | 2.0 | 6.0 | 0.01 | 0.24 | 0.24 | 97 | 1018.9 |
| 20260901150516 | 59 | 68 | 2.0 | 5.0 | 0.01 | 0.24 | 0.24 | 96 | 1018.7 |
| 20260901150016 | 60 | 68 | 2.0 | 6.0 | 0.01 | 0.24 | 0.24 | 96 | 1018.8 |
| 20260901145516 | 61 | 68 | 1.0 | 4.0 | 0.01 | 0.24 | 0.24 | 95 | 1018.9 |
| 20260901145016 | 61 | 0.0 | 2.0 | 0.01 | 0.24 | 0.24 | 96 | 1018.8 | |
| 20260901144516 | 61 | 113 | 2.0 | 5.0 | 0.01 | 0.24 | 0.24 | 95 | 1018.6 |
| 20260901144016 | 60 | 135 | 1.0 | 4.0 | 0.01 | 0.24 | 0.24 | 96 | 1018.6 |
| 20260901143516 | 60 | 90 | 3.0 | 9.0 | 0.01 | 0.24 | 0.24 | 95 | 1018.5 |
| 20260901143016 | 60 | 90 | 3.0 | 7.0 | 0.00 | 0.23 | 0.23 | 96 | 1018.4 |
| 20260901142516 | 60 | 90 | 4.0 | 10.0 | 0.00 | 0.23 | 0.23 | 96 | 1018.3 |
| 20260901142016 | 61 | 135 | 5.0 | 8.0 | 0.00 | 0.23 | 0.23 | 96 | 1018.3 |
| 20260901141516 | 61 | 135 | 4.0 | 10.0 | 0.00 | 0.23 | 0.23 | 95 | 1018.2 |
| 20260901141033 | 61 | 135 | 1.0 | 4.0 | 0.00 | 0.23 | 0.23 | 96 | 1018.2 |
| 20260901140516 | 61 | 135 | 1.0 | 3.0 | 0.00 | 0.23 | 0.23 | 96 | 1018.2 |
| 20260901140016 | 61 | 68 | 1.0 | 5.0 | 0.00 | 0.23 | 0.23 | 96 | 1018.3 |
| 20260901135516 | 61 | 68 | 1.0 | 4.0 | 0.00 | 0.23 | 0.23 | 95 | 1018.4 |
| 20260901135016 | 61 | 113 | 2.0 | 8.0 | 0.00 | 0.23 | 0.23 | 95 | 1018.4 |
| 20260901134516 | 61 | 135 | 1.0 | 3.0 | 0.00 | 0.23 | 0.23 | 97 | 1018.3 |
| 20260901134016 | 61 | 135 | 1.0 | 4.0 | 0.00 | 0.23 | 0.23 | 97 | 1018.3 |
| 20260901133516 | 60 | 0.0 | 2.0 | 0.00 | 0.23 | 0.23 | 97 | 1018.4 | |
| 20260901133016 | 60 | 0.0 | 2.0 | 0.00 | 0.23 | 0.23 | 98 | 1018.5 | |
| 20260901132516 | 60 | 0.0 | 2.0 | 0.01 | 0.23 | 0.23 | 97 | 1018.5 | |
| 20260901132016 | 59 | 0.0 | 2.0 | 0.01 | 0.23 | 0.23 | 97 | 1018.6 | |
| 20260901131516 | 59 | 113 | 1.0 | 2.0 | 0.01 | 0.23 | 0.23 | 97 | 1018.6 |
| 20260901131016 | 59 | 90 | 1.0 | 3.0 | 0.02 | 0.23 | 0.23 | 97 | 1018.8 |
| 20260901130516 | 60 | 0.0 | 1.0 | 0.02 | 0.23 | 0.23 | 97 | 1018.9 | |
| 20260901130016 | 60 | 0.0 | 0.0 | 0.03 | 0.23 | 0.23 | 98 | 1018.9 | |
| 20260901125516 | 59 | 0.0 | 0.0 | 0.04 | 0.23 | 0.23 | 98 | 1018.9 | |
| 20260901125016 | 59 | 0.0 | 1.0 | 0.05 | 0.23 | 0.23 | 98 | 1018.7 | |
| 20260901124516 | 59 | 0.0 | 1.0 | 0.05 | 0.23 | 0.23 | 98 | 1018.6 | |
| 20260901124016 | 59 | 0.0 | 0.0 | 0.06 | 0.23 | 0.23 | 98 | 1018.7 | |
| 20260901123516 | 59 | 0.0 | 1.0 | 0.07 | 0.23 | 0.23 | 98 | 1018.6 | |
| 20260901123016 | 59 | 0.0 | 1.0 | 0.08 | 0.23 | 0.23 | 98 | 1018.8 | |
| 20260901122516 | 59 | 0.0 | 2.0 | 0.08 | 0.22 | 0.22 | 98 | 1018.9 | |
| 20260901122016 | 58 | 0.0 | 1.0 | 0.09 | 0.22 | 0.22 | 98 | 1018.8 | |
| 20260901121516 | 58 | 0.0 | 1.0 | 0.10 | 0.22 | 0.22 | 98 | 1018.9 | |
| 20260901121016 | 58 | 0.0 | 2.0 | 0.09 | 0.21 | 0.21 | 98 | 1018.9 | |
| 20260901120536 | 58 | 0.0 | 2.0 | 0.10 | 0.21 | 0.21 | 99 | 1018.9 | |
| 20260901120016 | 58 | 45 | 1.0 | 4.0 | 0.10 | 0.20 | 0.20 | 99 | 1019.0 |
| 20260901115516 | 58 | 0.0 | 2.0 | 0.10 | 0.19 | 0.19 | 99 | 1019.1 | |
| 20260901115016 | 58 | 0.0 | 0.0 | 0.09 | 0.18 | 0.18 | 99 | 1019.2 | |
| 20260901114516 | 58 | 0.0 | 0.0 | 0.09 | 0.18 | 0.18 | 99 | 1019.2 | |
| 20260901114016 | 58 | 0.0 | 1.0 | 0.09 | 0.17 | 0.17 | 98 | 1019.1 | |
| 20260901113516 | 58 | 0.0 | 0.0 | 0.09 | 0.16 | 0.16 | 98 | 1018.9 | |
| 20260901113016 | 58 | 0.0 | 1.0 | 0.09 | 0.15 | 0.15 | 98 | 1018.9 | |
| 20260901112516 | 58 | 0.0 | 1.0 | 0.09 | 0.14 | 0.14 | 98 | 1018.9 | |
| 20260901112016 | 58 | 0.0 | 0.0 | 0.09 | 0.13 | 0.13 | 98 | 1018.8 | |
| 20260901111516 | 58 | 0.0 | 0.0 | 0.10 | 0.12 | 0.12 | 98 | 1018.6 | |
| 20260901111016 | 58 | 0.0 | 0.0 | 0.11 | 0.12 | 0.12 | 98 | 1018.7 | |
| 20260901110516 | 58 | 0.0 | 0.0 | 0.11 | 0.11 | 0.11 | 98 | 1018.6 | |
| 20260901110016 | 58 | 0.0 | 1.0 | 0.10 | 0.10 | 0.10 | 97 | 1018.7 | |
| 20260901105536 | 58 | 0.0 | 0.0 | 0.09 | 0.09 | 0.09 | 97 | 1018.8 | |
| 20260901105016 | 59 | 0.0 | 1.0 | 0.09 | 0.09 | 0.09 | 96 | 1018.9 | |
| 20260901104556 | 59 | 0.0 | 0.0 | 0.09 | 0.09 | 0.09 | 96 | 1018.9 | |
| 20260901104016 | 59 | 135 | 1.0 | 3.0 | 0.08 | 0.08 | 0.08 | 95 | 1018.8 |
| 20260901103516 | 60 | 90 | 2.0 | 7.0 | 0.07 | 0.07 | 0.07 | 93 | 1018.8 |
| 20260901103016 | 60 | 90 | 3.0 | 6.0 | 0.06 | 0.06 | 0.07 | 92 | 1018.9 |
| 20260901102516 | 60 | 90 | 2.0 | 7.0 | 0.05 | 0.05 | 0.05 | 93 | 1018.9 |
| 20260901102016 | 60 | 113 | 1.0 | 3.0 | 0.04 | 0.04 | 0.04 | 92 | 1018.9 |
| 20260901101516 | 61 | 90 | 1.0 | 6.0 | 0.02 | 0.02 | 0.02 | 91 | 1018.8 |
| 20260901101016 | 61 | 90 | 1.0 | 5.0 | 0.01 | 0.01 | 0.01 | 90 | 1018.9 |
| 20260901100516 | 61 | 90 | 1.0 | 6.0 | 0.00 | 0.00 | 0.00 | 90 | 1018.7 |
| 20260901100036 | 61 | 0.0 | 1.0 | 0.00 | 0.00 | 0.00 | 92 | 1018.8 | |
| 20260901095516 | 61 | 0.0 | 0.0 | 0.00 | 0.00 | 0.00 | 92 | 1018.6 | |
| 20260901095016 | 61 | 0.0 | 0.0 | 0.00 | 0.00 | 0.00 | 92 | 1018.5 | |
| 20260901094516 | 61 | 0.0 | 0.0 | 0.00 | 0.00 | 0.00 | 91 | 1018.4 | |
| 20260901094016 | 61 | 0.0 | 0.0 | 0.00 | 0.00 | 0.00 | 91 | 1018.4 | |
| 20260901093516 | 61 | 0.0 | 0.0 | 0.00 | 0.00 | 0.00 | 90 | 1018.3 | |
| 20260901093016 | 62 | 0.0 | 0.0 | 0.00 | 0.00 | 0.00 | 89 | 1018.3 | |
| 20260901092516 | 62 | 0.0 | 0.0 | 0.00 | 0.00 | 0.00 | 88 | 1018.1 | |
| 20260901092016 | 62 | 0.0 | 0.0 | 0.00 | 0.00 | 0.00 | 88 | 1018.1 | |
| 20260901091516 | 62 | 270 | 1.0 | 2.0 | 0.00 | 0.00 | 0.00 | 87 | 1018.2 |
| 20260901091016 | 63 | 0.0 | 1.0 | 0.00 | 0.00 | 0.00 | 86 | 1018.2 | |
| 20260901090516 | 63 | 45 | 1.0 | 4.0 | 0.00 | 0.00 | 0.00 | 85 | 1018.1 |
| 20260901090036 | 62 | 45 | 4.0 | 9.0 | 0.00 | 0.00 | 0.00 | 86 | 1018.3 |
| 20260901085516 | 62 | 90 | 1.0 | 7.0 | 0.00 | 0.00 | 0.00 | 88 | 1018.5 |
| 20260901085016 | 62 | 0.0 | 0.0 | 0.00 | 0.00 | 0.00 | 90 | 1018.6 | |
| 20260901084516 | 63 | 0.0 | 0.0 | 0.00 | 0.00 | 0.00 | 88 | 1018.6 | |
| 20260901084016 | 63 | 0.0 | 0.0 | 0.00 | 0.00 | 0.00 | 87 | 1018.5 | |
| 20260901083516 | 63 | 0.0 | 0.0 | 0.00 | 0.00 | 0.00 | 86 | 1018.5 | |
| 20260901083016 | 63 | 0.0 | 1.0 | 0.00 | 0.00 | 0.00 | 86 | 1018.6 | |
| 20260901082516 | 63 | 90 | 1.0 | 3.0 | 0.00 | 0.00 | 0.00 | 85 | 1018.6 |
| 20260901082016 | 63 | 68 | 4.0 | 8.0 | 0.00 | 0.00 | 0.00 | 85 | 1018.8 |
| 20260901081516 | 63 | 68 | 3.0 | 6.0 | 0.00 | 0.00 | 0.00 | 85 | 1018.9 |
| 20260901081016 | 63 | 90 | 3.0 | 6.0 | 0.00 | 0.00 | 0.00 | 86 | 1018.7 |
| 20260901080516 | 63 | 113 | 3.0 | 6.0 | 0.00 | 0.00 | 0.00 | 87 | 1018.6 |
| 20260901080016 | 63 | 90 | 3.0 | 4.0 | 0.00 | 0.00 | 0.00 | 87 | 1018.6 |
| 20260901075516 | 63 | 90 | 2.0 | 5.0 | 0.00 | 0.00 | 0.00 | 87 | 1018.6 |
| 20260901075016 | 62 | 90 | 2.0 | 6.0 | 0.00 | 0.00 | 0.00 | 88 | 1018.6 |
| 20260901074516 | 62 | 113 | 1.0 | 5.0 | 0.00 | 0.00 | 0.00 | 89 | 1018.5 |
| 20260901074016 | 62 | 0.0 | 2.0 | 0.00 | 0.00 | 0.00 | 89 | 1018.6 | |
| 20260901073516 | 61 | 113 | 1.0 | 4.0 | 0.00 | 0.00 | 0.00 | 90 | 1018.6 |
| 20260901073016 | 61 | 113 | 1.0 | 4.0 | 0.00 | 0.00 | 0.00 | 94 | 1018.7 |
| 20260901072516 | 60 | 0.0 | 2.0 | 0.00 | 0.00 | 0.00 | 97 | 1018.5 | |
| 20260901072016 | 60 | 0.0 | 1.0 | 0.00 | 0.00 | 0.00 | 98 | 1018.7 | |
| 20260901071516 | 60 | 0.0 | 0.0 | 0.00 | 0.00 | 0.00 | 98 | 1018.8 | |
| 20260901071016 | 60 | 0.0 | 0.0 | 0.00 | 0.00 | 0.00 | 98 | 1018.8 | |
| 20260901070542 | 60 | 0.0 | 0.0 | 0.00 | 0.00 | 0.00 | 98 | 1018.6 | |
| 20260901070036 | 60 | 0.0 | 0.0 | 0.00 | 0.00 | 0.00 | 98 | 1018.8 | |
| 20260901065536 | 60 | 0.0 | 0.0 | 0.00 | 0.00 | 0.00 | 98 | 1018.8 | |
| 20260901065016 | 60 | 0.0 | 0.0 | 0.00 | 0.00 | 0.00 | 98 | 1018.8 | |
| 20260901064516 | 60 | 0.0 | 0.0 | 0.00 | 0.00 | 0.00 | 98 | 1018.9 | |
| 20260901064057 | 60 | 0.0 | 0.0 | 0.00 | 0.00 | 0.00 | 98 | 1019.0 | |
| 20260901063516 | 60 | 0.0 | 0.0 | 0.00 | 0.00 | 0.00 | 98 | 1019.1 | |
| 20260901063016 | 60 | 0.0 | 0.0 | 0.00 | 0.00 | 0.00 | 98 | 1019.1 | |
| 20260901062516 | 60 | 0.0 | 0.0 | 0.00 | 0.00 | 0.00 | 98 | 1019.3 | |
| 20260901062016 | 60 | 0.0 | 0.0 | 0.00 | 0.00 | 0.00 | 97 | 1019.3 | |
| 20260901061516 | 60 | 0.0 | 0.0 | 0.00 | 0.00 | 0.00 | 97 | 1019.2 | |
| 20260901061016 | 60 | 0.0 | 0.0 | 0.00 | 0.00 | 0.00 | 97 | 1019.2 | |
| 20260901060516 | 60 | 0.0 | 0.0 | 0.00 | 0.00 | 0.00 | 97 | 1019.2 | |
| 20260901060016 | 60 | 0.0 | 0.0 | 0.00 | 0.00 | 0.00 | 97 | 1019.3 | |
| 20260901055516 | 60 | 0.0 | 0.0 | 0.00 | 0.00 | 0.00 | 97 | 1019.3 | |
| 20260901055016 | 60 | 0.0 | 0.0 | 0.00 | 0.00 | 0.00 | 97 | 1019.2 | |
| 20260901054516 | 60 | 0.0 | 0.0 | 0.00 | 0.00 | 0.00 | 97 | 1019.3 | |
| 20260901054016 | 60 | 0.0 | 0.0 | 0.00 | 0.00 | 0.00 | 97 | 1019.5 | |
| 20260901053536 | 60 | 0.0 | 0.0 | 0.00 | 0.00 | 0.00 | 97 | 1019.6 | |
| 20260901053016 | 60 | 0.0 | 0.0 | 0.00 | 0.00 | 0.00 | 97 | 1019.8 | |
| 20260901052536 | 60 | 0.0 | 0.0 | 0.00 | 0.00 | 0.00 | 97 | 1019.7 | |
| 20260901052016 | 60 | 0.0 | 0.0 | 0.00 | 0.00 | 0.00 | 97 | 1019.7 | |
| 20260901051516 | 60 | 0.0 | 0.0 | 0.00 | 0.00 | 0.00 | 97 | 1019.6 | |
| 20260901051016 | 60 | 0.0 | 0.0 | 0.00 | 0.00 | 0.00 | 97 | 1019.6 | |
| 20260901050516 | 60 | 0.0 | 0.0 | 0.00 | 0.00 | 0.00 | 97 | 1019.7 | |
| 20260901050016 | 60 | 0.0 | 0.0 | 0.00 | 0.00 | 0.00 | 97 | 1019.8 | |
| 20260901045516 | 60 | 0.0 | 0.0 | 0.00 | 0.00 | 0.00 | 96 | 1019.9 | |
| 20260901045016 | 60 | 0.0 | 0.0 | 0.00 | 0.00 | 0.00 | 96 | 1019.9 | |
| 20260901044516 | 60 | 0.0 | 0.0 | 0.00 | 0.00 | 0.00 | 96 | 1019.9 | |
| 20260901044016 | 60 | 0.0 | 0.0 | 0.00 | 0.00 | 0.00 | 96 | 1019.8 | |
| 20260901043516 | 60 | 0.0 | 0.0 | 0.00 | 0.00 | 0.00 | 96 | 1019.7 | |
| 20260901043016 | 60 | 0.0 | 1.0 | 0.00 | 0.00 | 0.00 | 96 | 1019.7 | |
| 20260901042516 | 60 | 0.0 | 0.0 | 0.00 | 0.00 | 0.00 | 96 | 1019.6 | |
| 20260901042016 | 60 | 0.0 | 0.0 | 0.00 | 0.00 | 0.00 | 96 | 1019.7 | |
| 20260901041516 | 60 | 0.0 | 0.0 | 0.00 | 0.00 | 0.00 | 96 | 1019.6 | |
| 20260901041017 | 60 | 0.0 | 0.0 | 0.00 | 0.00 | 0.00 | 96 | 1019.5 | |
| 20260901040516 | 60 | 0.0 | 0.0 | 0.00 | 0.00 | 0.00 | 96 | 1019.5 | |
| 20260901040016 | 60 | 0.0 | 0.0 | 0.00 | 0.00 | 0.00 | 96 | 1019.6 | |
| 20260901035536 | 60 | 0.0 | 0.0 | 0.00 | 0.00 | 0.00 | 96 | 1019.7 | |
| 20260901035016 | 60 | 0.0 | 0.0 | 0.00 | 0.00 | 0.00 | 96 | 1019.6 | |
| 20260901034536 | 60 | 0.0 | 0.0 | 0.00 | 0.00 | 0.00 | 96 | 1019.4 | |
| 20260901034016 | 60 | 0.0 | 0.0 | 0.00 | 0.00 | 0.00 | 96 | 1019.4 | |
| 20260901033516 | 60 | 0.0 | 0.0 | 0.00 | 0.00 | 0.00 | 96 | 1019.5 | |
| 20260901033036 | 60 | 0.0 | 0.0 | 0.00 | 0.00 | 0.00 | 96 | 1019.6 | |
| 20260901032516 | 60 | 0.0 | 0.0 | 0.00 | 0.00 | 0.00 | 95 | 1019.5 | |
| 20260901032016 | 60 | 0.0 | 0.0 | 0.00 | 0.00 | 0.00 | 95 | 1019.6 | |
| 20260901031516 | 60 | 0.0 | 0.0 | 0.00 | 0.00 | 0.00 | 95 | 1019.6 | |
| 20260901031016 | 60 | 0.0 | 0.0 | 0.00 | 0.00 | 0.00 | 95 | 1019.6 | |
| 20260901030516 | 61 | 0.0 | 0.0 | 0.00 | 0.00 | 0.00 | 95 | 1019.7 | |
| 20260901030016 | 61 | 0.0 | 0.0 | 0.00 | 0.00 | 0.00 | 95 | 1019.7 | |
| 20260901025516 | 61 | 0.0 | 0.0 | 0.00 | 0.00 | 0.00 | 95 | 1019.6 | |
| 20260901025016 | 61 | 0.0 | 0.0 | 0.00 | 0.00 | 0.00 | 95 | 1019.6 | |
| 20260901024516 | 61 | 0.0 | 0.0 | 0.00 | 0.00 | 0.00 | 95 | 1019.7 | |
| 20260901024016 | 61 | 0.0 | 0.0 | 0.00 | 0.00 | 0.00 | 94 | 1019.7 | |
| 20260901023516 | 61 | 0.0 | 0.0 | 0.00 | 0.00 | 0.00 | 94 | 1019.8 | |
| 20260901023036 | 61 | 0.0 | 0.0 | 0.00 | 0.00 | 0.00 | 94 | 1019.8 | |
| 20260901022516 | 61 | 0.0 | 0.0 | 0.00 | 0.00 | 0.00 | 94 | 1019.7 | |
| 20260901022016 | 61 | 0.0 | 0.0 | 0.00 | 0.00 | 0.00 | 94 | 1019.7 | |
| 20260901021516 | 61 | 0.0 | 0.0 | 0.00 | 0.00 | 0.00 | 94 | 1019.8 | |
| 20260901021016 | 61 | 0.0 | 0.0 | 0.00 | 0.00 | 0.00 | 94 | 1019.8 | |
| 20260901020516 | 61 | 0.0 | 0.0 | 0.00 | 0.00 | 0.00 | 94 | 1019.9 | |
| 20260901020016 | 61 | 0.0 | 0.0 | 0.00 | 0.00 | 0.00 | 94 | 1019.8 | |
| 20260901015536 | 61 | 0.0 | 0.0 | 0.00 | 0.00 | 0.00 | 94 | 1019.9 | |
| 20260901015016 | 61 | 0.0 | 0.0 | 0.00 | 0.00 | 0.00 | 94 | 1019.8 | |
| 20260901014516 | 61 | 0.0 | 0.0 | 0.00 | 0.00 | 0.00 | 94 | 1019.8 | |
| 20260901014016 | 61 | 0.0 | 0.0 | 0.00 | 0.00 | 0.00 | 94 | 1019.7 | |
| 20260901013516 | 61 | 0.0 | 0.0 | 0.00 | 0.00 | 0.00 | 94 | 1019.7 | |
| 20260901013016 | 61 | 0.0 | 0.0 | 0.00 | 0.00 | 0.00 | 94 | 1019.6 | |
| 20260901012536 | 61 | 0.0 | 0.0 | 0.00 | 0.00 | 0.00 | 94 | 1019.6 | |
| 20260901012016 | 61 | 0.0 | 0.0 | 0.00 | 0.00 | 0.00 | 94 | 1019.7 | |
| 20260901011536 | 61 | 0.0 | 0.0 | 0.00 | 0.00 | 0.00 | 94 | 1019.7 | |
| 20260901011016 | 61 | 0.0 | 0.0 | 0.00 | 0.00 | 0.00 | 93 | 1019.7 | |
| 20260901010516 | 61 | 0.0 | 0.0 | 0.00 | 0.00 | 0.00 | 94 | 1019.6 | |
| 20260901010036 | 61 | 0.0 | 0.0 | 0.00 | 0.00 | 0.00 | 93 | 1019.6 | |
| 20260901005516 | 61 | 0.0 | 0.0 | 0.00 | 0.00 | 0.00 | 93 | 1019.6 | |
| 20260901005016 | 61 | 0.0 | 0.0 | 0.00 | 0.00 | 0.00 | 93 | 1019.6 | |
| 20260901004516 | 62 | 0.0 | 0.0 | 0.00 | 0.00 | 0.00 | 93 | 1019.7 | |
| 20260901004056 | 62 | 0.0 | 0.0 | 0.00 | 0.00 | 0.00 | 92 | 1019.7 | |
| 20260901003516 | 62 | 0.0 | 0.0 | 0.00 | 0.00 | 0.00 | 92 | 1019.7 | |
| 20260901003016 | 62 | 0.0 | 0.0 | 0.00 | 0.00 | 0.00 | 91 | 1019.7 | |
| 20260901002517 | 63 | 0.0 | 0.0 | 0.00 | 0.00 | 0.00 | 92 | 1019.8 | |
| 20260901002036 | 63 | 0.0 | 0.0 | 0.00 | 0.00 | 0.00 | 91 | 1019.7 | |
| 20260901001516 | 63 | 0.0 | 0.0 | 0.00 | 0.00 | 0.00 | 91 | 1019.8 | |
| 20260901001016 | 63 | 0.0 | 0.0 | 0.00 | 0.00 | 0.00 | 90 | 1019.8 | |
| 20260901000516 | 63 | 0.0 | 0.0 | 0.00 | 0.00 | 0.00 | 90 | 1019.8 | |
| 20260901000016 | 64 | 0.0 | 0.0 | 0.00 | 0.00 | 0.00 | 89 | 1019.7 | |
| 20260831235516 | 64 | 0.0 | 0.0 | 0.00 | 0.00 | 0.00 | 89 | 1019.7 | |
| 20260831235016 | 64 | 0.0 | 1.0 | 0.00 | 0.00 | 0.00 | 88 | 1019.7 | |
| 20260831234516 | 64 | 0.0 | 0.0 | 0.00 | 0.00 | 0.00 | 89 | 1019.7 | |
| 20260831234016 | 65 | 0.0 | 0.0 | 0.00 | 0.00 | 0.00 | 88 | 1019.6 | |
| 20260831233516 | 65 | 0.0 | 0.0 | 0.00 | 0.00 | 0.00 | 87 | 1019.7 | |
| 20260831233036 | 65 | 0.0 | 0.0 | 0.00 | 0.00 | 0.00 | 86 | 1019.7 | |
| 20260831232516 | 66 | 0.0 | 0.0 | 0.00 | 0.00 | 0.00 | 86 | 1019.7 | |
| 20260831232016 | 66 | 0.0 | 0.0 | 0.00 | 0.00 | 0.00 | 84 | 1019.7 | |
| 20260831231516 | 66 | 0.0 | 0.0 | 0.00 | 0.00 | 0.00 | 84 | 1019.8 | |
| 20260831231016 | 67 | 0.0 | 0.0 | 0.00 | 0.00 | 0.00 | 83 | 1019.9 | |
| 20260831230557 | 67 | 0.0 | 0.0 | 0.00 | 0.00 | 0.00 | 83 | 1019.9 | |
| 20260831230017 | 67 | 0.0 | 0.0 | 0.00 | 0.00 | 0.00 | 83 | 1020.0 | |
| 20260831225516 | 68 | 0.0 | 0.0 | 0.00 | 0.00 | 0.00 | 81 | 1020.0 | |
| 20260831225037 | 68 | 0.0 | 0.0 | 0.00 | 0.00 | 0.00 | 80 | 1019.9 | |
| 20260831224516 | 68 | 0.0 | 0.0 | 0.00 | 0.00 | 0.00 | 79 | 1020.0 | |
| 20260831224016 | 69 | 0.0 | 0.0 | 0.00 | 0.00 | 0.00 | 78 | 1020.0 | |
| 20260831223517 | 69 | 0.0 | 0.0 | 0.00 | 0.00 | 0.00 | 76 | 1020.1 | |
| 20260831223037 | 70 | 0.0 | 0.0 | 0.00 | 0.00 | 0.00 | 74 | 1020.1 | |
| 20260831222516 | 70 | 0.0 | 1.0 | 0.00 | 0.00 | 0.00 | 70 | 1020.2 | |
| 20260831222016 | 70 | 0.0 | 1.0 | 0.00 | 0.00 | 0.00 | 68 | 1020.1 | |
| 20260831221516 | 70 | 0.0 | 1.0 | 0.00 | 0.00 | 0.00 | 67 | 1020.1 | |
| 20260831221016 | 71 | 0.0 | 1.0 | 0.00 | 0.00 | 0.00 | 67 | 1020.1 | |
| 20260831220516 | 71 | 0.0 | 1.0 | 0.00 | 0.00 | 0.00 | 65 | 1020.1 | |
| 20260831220016 | 72 | 0.0 | 1.0 | 0.00 | 0.01 | 0.00 | 65 | 1020.1 | |
| 20260831215516 | 73 | 315 | 1.0 | 2.0 | 0.00 | 0.01 | 0.00 | 61 | 1020.1 |
| 20260831215016 | 73 | 315 | 1.0 | 2.0 | 0.00 | 0.02 | 0.00 | 61 | 1020.1 |
| 20260831214536 | 74 | 0.0 | 2.0 | 0.00 | 0.02 | 0.00 | 58 | 1020.1 | |
| 20260831214016 | 74 | 0.0 | 2.0 | 0.00 | 0.02 | 0.00 | 62 | 1020.0 | |
| 20260831213516 | 73 | 0.0 | 1.0 | 0.00 | 0.02 | 0.00 | 59 | 1020.1 | |
| 20260831213016 | 74 | 293 | 1.0 | 3.0 | 0.00 | 0.02 | 0.00 | 62 | 1020.1 |
| 20260831212556 | 74 | 0.0 | 1.0 | 0.00 | 0.02 | 0.00 | 62 | 1020.1 | |
| 20260831212016 | 74 | 0.0 | 1.0 | 0.00 | 0.02 | 0.00 | 62 | 1020.1 | |
| 20260831211516 | 73 | 0.0 | 2.0 | 0.00 | 0.02 | 0.00 | 64 | 1020.0 | |
| 20260831211016 | 73 | 293 | 2.0 | 5.0 | 0.00 | 0.02 | 0.00 | 60 | 1020.1 |
| 20260831210516 | 73 | 315 | 1.0 | 4.0 | 0.00 | 0.02 | 0.00 | 61 | 1020.1 |
| 20260831210016 | 74 | 315 | 2.0 | 7.0 | 0.00 | 0.02 | 0.00 | 59 | 1020.1 |
| 20260831205516 | 74 | 0.0 | 0.0 | 0.00 | 0.02 | 0.00 | 63 | 1020.0 | |
| 20260831205036 | 74 | 293 | 1.0 | 3.0 | 0.00 | 0.02 | 0.00 | 61 | 1020.2 |
| 20260831204516 | 73 | 0.0 | 1.0 | 0.00 | 0.02 | 0.00 | 67 | 1020.2 | |
| 20260831204016 | 73 | 338 | 2.0 | 5.0 | 0.00 | 0.02 | 0.00 | 61 | 1020.1 |
| 20260831203516 | 73 | 315 | 2.0 | 7.0 | 0.00 | 0.02 | 0.00 | 65 | 1020.2 |
| 20260831203016 | 73 | 158 | 2.0 | 6.0 | 0.00 | 0.02 | 0.00 | 61 | 1020.3 |
| 20260831202517 | 73 | 135 | 1.0 | 5.0 | 0.00 | 0.02 | 0.00 | 62 | 1020.4 |
| 20260831202016 | 72 | 315 | 2.0 | 4.0 | 0.00 | 0.02 | 0.00 | 63 | 1020.5 |
| 20260831201537 | 72 | 315 | 4.0 | 9.0 | 0.00 | 0.02 | 0.00 | 63 | 1020.5 |
| 20260831201016 | 72 | 270 | 2.0 | 6.0 | 0.00 | 0.02 | 0.00 | 63 | 1020.5 |
| 20260831200516 | 72 | 293 | 2.0 | 4.0 | 0.00 | 0.02 | 0.00 | 60 | 1020.6 |
| 20260831200016 | 72 | 315 | 2.0 | 6.0 | 0.00 | 0.02 | 0.00 | 60 | 1020.6 |
| 20260831195516 | 72 | 315 | 2.0 | 7.0 | 0.00 | 0.02 | 0.00 | 65 | 1020.6 |
| 20260831195016 | 72 | 293 | 2.0 | 9.0 | 0.00 | 0.02 | 0.00 | 60 | 1020.6 |
| 20260831194516 | 72 | 315 | 1.0 | 6.0 | 0.00 | 0.02 | 0.00 | 67 | 1020.6 |
| 20260831194016 | 72 | 315 | 3.0 | 7.0 | 0.00 | 0.02 | 0.00 | 64 | 1020.7 |
| 20260831193516 | 73 | 293 | 1.0 | 4.0 | 0.00 | 0.02 | 0.00 | 63 | 1020.7 |
| 20260831193016 | 72 | 315 | 1.0 | 4.0 | 0.00 | 0.02 | 0.00 | 60 | 1020.7 |
| 20260831192516 | 72 | 315 | 2.0 | 5.0 | 0.00 | 0.02 | 0.00 | 63 | 1020.8 |
| 20260831192036 | 73 | 248 | 1.0 | 4.0 | 0.00 | 0.02 | 0.00 | 61 | 1020.8 |
| 20260831191516 | 72 | 225 | 1.0 | 4.0 | 0.00 | 0.02 | 0.00 | 64 | 1020.8 |
| 20260831191016 | 72 | 315 | 2.0 | 8.0 | 0.00 | 0.02 | 0.00 | 63 | 1020.8 |
| 20260831190536 | 72 | 315 | 2.0 | 6.0 | 0.00 | 0.02 | 0.00 | 67 | 1020.9 |
| 20260831190016 | 72 | 315 | 2.0 | 6.0 | 0.00 | 0.02 | 0.00 | 62 | 1020.8 |
| 20260831185516 | 72 | 315 | 3.0 | 8.0 | 0.00 | 0.02 | 0.00 | 67 | 1020.8 |
| 20260831185016 | 72 | 338 | 3.0 | 7.0 | 0.00 | 0.02 | 0.00 | 65 | 1020.8 |
| 20260831184516 | 73 | 315 | 2.0 | 6.0 | 0.00 | 0.02 | 0.00 | 61 | 1020.9 |
| 20260831184056 | 71 | 0.0 | 3.0 | 0.00 | 0.02 | 0.00 | 71 | 1020.9 | |
| 20260831183516 | 71 | 315 | 3.0 | 7.0 | 0.00 | 0.02 | 0.00 | 68 | 1020.9 |
| 20260831183016 | 71 | 315 | 2.0 | 6.0 | 0.00 | 0.02 | 0.00 | 65 | 1021.0 |
| 20260831182516 | 71 | 315 | 4.0 | 9.0 | 0.00 | 0.02 | 0.00 | 68 | 1021.1 |
| 20260831182016 | 72 | 338 | 3.0 | 7.0 | 0.00 | 0.02 | 0.00 | 65 | 1021.2 |
| 20260831181516 | 72 | 315 | 2.0 | 7.0 | 0.00 | 0.02 | 0.00 | 67 | 1021.2 |
| 20260831181016 | 71 | 315 | 3.0 | 8.0 | 0.00 | 0.02 | 0.00 | 70 | 1021.3 |
| 20260831180516 | 72 | 315 | 3.0 | 9.0 | 0.00 | 0.02 | 0.00 | 70 | 1021.3 |
| 20260831180016 | 72 | 293 | 2.0 | 5.0 | 0.00 | 0.02 | 0.00 | 71 | 1021.3 |
| 20260831175516 | 71 | 248 | 1.0 | 4.0 | 0.00 | 0.02 | 0.00 | 74 | 1021.3 |
| 20260831175016 | 71 | 293 | 2.0 | 7.0 | 0.00 | 0.02 | 0.00 | 69 | 1021.4 |
| 20260831174516 | 71 | 338 | 1.0 | 5.0 | 0.00 | 0.02 | 0.00 | 73 | 1021.4 |
| 20260831174016 | 70 | 315 | 1.0 | 4.0 | 0.00 | 0.02 | 0.00 | 72 | 1021.4 |
| 20260831173516 | 71 | 315 | 3.0 | 8.0 | 0.00 | 0.02 | 0.00 | 70 | 1021.6 |
| 20260831173017 | 70 | 315 | 1.0 | 4.0 | 0.00 | 0.02 | 0.00 | 70 | 1021.5 |
| 20260831172517 | 70 | 315 | 3.0 | 6.0 | 0.00 | 0.02 | 0.00 | 68 | 1021.5 |
| 20260831172016 | 70 | 315 | 2.0 | 6.0 | 0.00 | 0.02 | 0.00 | 70 | 1021.6 |
| 20260831171517 | 70 | 315 | 2.0 | 4.0 | 0.00 | 0.02 | 0.00 | 72 | 1021.6 |
| 20260831171036 | 71 | 270 | 2.0 | 6.0 | 0.00 | 0.02 | 0.00 | 72 | 1021.6 |
| 20260831170517 | 71 | 315 | 1.0 | 5.0 | 0.00 | 0.02 | 0.00 | 67 | 1021.5 |
| 20260831170017 | 71 | 45 | 2.0 | 5.0 | 0.00 | 0.02 | 0.00 | 69 | 1021.6 |
| 20260831165516 | 71 | 68 | 1.0 | 4.0 | 0.00 | 0.02 | 0.00 | 66 | 1021.6 |
| 20260831165016 | 71 | 248 | 1.0 | 4.0 | 0.00 | 0.02 | 0.00 | 66 | 1021.6 |
| 20260831164516 | 72 | 135 | 2.0 | 6.0 | 0.00 | 0.02 | 0.00 | 64 | 1021.6 |
| 20260831164016 | 71 | 45 | 1.0 | 4.0 | 0.00 | 0.02 | 0.00 | 64 | 1021.7 |
| 20260831163516 | 71 | 180 | 3.0 | 6.0 | 0.00 | 0.02 | 0.00 | 63 | 1021.7 |
| 20260831163017 | 71 | 315 | 2.0 | 6.0 | 0.00 | 0.02 | 0.00 | 64 | 1021.8 |